COSMOS 2251 DEB, 34882

Orbit data source: Space-Track

COSMOS 2251 DEB, 34882 is space debris in LEO originally from a launch on Wed, 16 Jun 1993 UTC launched from the Plesetsk Missile And Space Complex (PKMTR). The debris from Iridium 33, an American commercial communications satellite, has been tracked extensively since its accidental collision with the defunct Russian satellite Cosmos 2251 in 2009. This event, occurring at high speed in low Earth orbit (LEO), generated thousands of pieces of space debris, significantly increasing the risk of further collisions. The Iridium 33 debris cloud has impacted space traffic management and orbital debris mitigation strategies, making it a subject of ongoing study in space situational awareness.

Loading next visibility...
Identifier
34882, 1993-036ACV
Orbit
LEO
Country
Flag of CISCIS
Related business
Manufacturer
Unknown
Mission
Spacecraft
Bus & Motor
Unknown
Mass
Unknown
Launch date (UTC)
1993-06-16 (33 years ago)
Launch vehicle
Unknown
Launch site
Plesetsk Missile And Space Complex (PKMTR)
Object type
Payload
Rocket body
Debris
Shape & HBR
Unknown shape, 0.1 m
Radar Cross Section
Small (<0.1 m²)

Expand to show TLE details & history
Last TLE update: 1 day ago

TLE from 1 day ago
0 COSMOS 2251 DEB
1 34882U 93036ACV 26235.60781675  .00000509  00000-0  10294-3 0  9997
2 34882  74.0454 100.0172 0081672 163.0799 197.3123 14.61986020922344
Epoch: 2026-08-23T14:35Z
TLE epoch observation values (Epoch: 2026-08-23T14:35:15.367Z)
Latitude
0.00006°
Longitude
-90.69825°
Altitude
744.549 km
Speed
7.453 km/s
True Right ascension
06h 40m 04s
True Declination
0° 00' 00"
Sunlit
Object was in daylight at epoch
Visualization orbit readout
Latitude
Unknown
Longitude
Unknown
Altitude
Unknown
Speed
Unknown
Apparent Right ascension
Unknown
Apparent Declination
Unknown
Sunlit
N/A
Visualization observer readout
Local Sidereal Time
15:18:59
Azimuth
Unknown
Elevation
Unknown
Doppler factor
Unknown
Orbital elements
Apogee altitude
742.044 km
Perigee altitude
626.682 km
Semi-major axis
7,062.5 km
Eccentricity
0.00817
Inclination
74.0454°
RAAN
100.0172°
Arg. of periapsis
163.0799°
True anomaly
197.03649°
Mean anomaly
197.3123°
Eccentric anomaly
197.17413°
Mean motion
3.65684 °/min
Orbital period
98.45 mins
BSTAR
0.00010294
Loading maneuver chart data...
Computing Atmospheric mass density...

Documentation

Showing up to 5 results
|